Regional Weather Roundup
Issued by NWS

Home | Current Version | Previous Version | Graphics & Text | Print | Product List | Glossary On
Versions: 1 2 3 4 5 6 7 8 9 10 11 12 13 14 15 16 17 18 19 20 21 22 23 24 25 26 27
000
ASUS45 KTFX 261610
RWRMT
MONTANA REGIONAL WEATHER ROUNDUP
NATIONAL WEATHER SERVICE GREAT FALLS MT
1000 AM MDT THU MAY 26 2016

NOTE: "FAIR" INDICATES FEW OR NO CLOUDS BELOW 12000 FEET WITH NO
SIGNIFICANT WEATHER AND/OR OBSTRUCTIONS TO VISIBILITY.

MTZ001>007-043-261700-
WEST OF THE DIVIDE

CITY           SKY/WX    TMP DP  RH WIND       PRES   REMARKS
KALISPELL      PTSUNNY   58  53  84 S7        29.97F
MISSOULA       CLOUDY    55  46  71 S3        30.04S
BUTTE          CLOUDY    51  37  58 CALM      30.05F
MULLAN PASS    CLOUDY    42  41  96 VRB5      30.07S FOG
ANACONDA         N/A     54  39  58 NE7       30.03F
DEER LODGE       N/A     52  43  71 CALM      30.05S
EUREKA           N/A     57  48  72 N5        29.97S
HAMILTON         N/A     55  43  62 S5        30.03F
LIBBY            N/A     57  48  72 CALM      29.98F
$$

MTZ008-052>055-261700-
SOUTHWEST MONTANA

CITY           SKY/WX    TMP DP  RH WIND       PRES   REMARKS
BOZEMAN        CLOUDY    55  41  59 VRB3      30.02F
DILLON         SUNNY     54  36  50 SW6       30.03F
ENNIS          MOSUNNY   52  36  54 NE3       30.09S
$$

MTZ009-010-012-014-046-048-049-054-261700-
EAST SLOPES AND CENTRAL MONTANA

CITY           SKY/WX    TMP DP  RH WIND       PRES   REMARKS
CUT BANK       CLOUDY    55  47  74 CALM      29.96S
GREAT FALLS    CLOUDY    53  48  83 SW12      29.97S
MALMSTROM AFB  PTSUNNY   56  47  70 W12       29.96F
HELENA         CLOUDY    54  48  80 CALM      30.00S
CHOTEAU          N/A     52  48  87 E3        29.98F
$$

MTZ011-013-016-021-045-047-050-051-261700-
NORTH CENTRAL MONTANA

CITY           SKY/WX    TMP DP  RH WIND       PRES   REMARKS
HAVRE            N/A    N/A N/A N/A MISG      29.93S
LEWISTOWN      PTSUNNY   54  43  66 NW8       29.95S
N BAR RANCH      N/A     52  41  66 NW17      29.96S
CHINOOK          N/A     55  50  82 NW5       29.92S
$$

MTZ017>020-022>027-061-062-261700-
NORTHEAST MONTANA

CITY           SKY/WX    TMP DP  RH WIND       PRES   REMARKS
GLASGOW        LGT RAIN  50  49  96 W7        29.84S FOG
JORDAN           N/A     61  47  59 N9        29.86F
SIDNEY         CLOUDY    61  48  63 SW10      29.81F
WOLF POINT     CLOUDY    59  50  72 NW12      29.81F
$$

MTZ028>42-056>058-261700-
SOUTHCENTRAL AND SOUTHEAST MONTANA

CITY           SKY/WX    TMP DP  RH WIND       PRES   REMARKS
BAKER          CLOUDY    56  43  61 W13       29.88S
BILLINGS       MOSUNNY   63  43  48 NW13G18   29.94F
LIVINGSTON     PTSUNNY   58  42  55 NW10G17   29.98F
MILES CITY     MOSUNNY   60  47  61 W10       29.87F
FORSYTH          N/A     55  48  76 SW9       29.89F
$$

REGIONAL REPORTS...DAKOTAS

CITY           SKY/WX    TMP DP  RH WIND       PRES   REMARKS
WILLISTON      CLOUDY    52  48  86 S6        29.82S
MINOT          LGT RAIN  58  55  90 NE9       29.79R FOG
DICKINSON      MOSUNNY   59  44  57 NW8       29.82F
BEACH          PTSUNNY   55  48  76 NW12      29.88S
CROSBY         LGT RAIN  54  54 100 E7        29.82S VSB 3/4
WATFORD CITY   PTSUNNY   57  50  77 W5        29.82F
BISMARCK       MOSUNNY   66  50  56 VRB5      29.83S
GRAND FORKS    PTSUNNY   66  58  75 SW15      29.72S
FARGO          CLOUDY    64  58  80 W9        29.77R
BUFFALO SD       N/A     62  42  47 W17G23    29.81F
RAPID CITY     MOSUNNY   65  44  46 N14       29.90S
$$

REGIONAL REPORTS...WYOMING/IDAHO/WASHINGTON

CITY           SKY/WX    TMP DP  RH WIND       PRES   REMARKS
GILLETTE       CLOUDY    57  41  55 NW10      29.94F
SHERIDAN       LGT RAIN  50  44  80 W8        29.97R
BUFFALO WY       N/A    N/A N/A N/A MISG      29.99R
CODY           PTSUNNY   57  39  51 NE7       29.98F
YELLOWSTONE LA   N/A     40  33  76 VRB3      30.11F
IDAHO FALLS    SUNNY     52  42  69 SW7       30.05F
SALMON         SUNNY     52  37  58 CALM      30.04F
BOISE          SUNNY     60  42  51 VRB7      30.03S
SPOKANE        PTSUNNY   54  43  66 S9        30.04S
$$

REGIONAL REPORTS...ALBERTA

CITY           SKY/WX    TMP DP  RH WIND       PRES   REMARKS
EDMONTON       MOSUNNY   59  48  67 NE3       29.89S
CALGARY        PTSUNNY   57  46  67 S5        29.93F
LETHBRIDGE     PTSUNNY   55  48  76 SE5       29.93F
MEDICINE HAT   MOSUNNY   59  48  67 CALM      29.93S
WATERTON GATE    N/A     57  45  62 SW14G21     N/A
CARDSTON         N/A     59  45  58 SE3         N/A
MILK RIVER       N/A     57  46  67 NW5         N/A
$$

REGIONAL REPORTS...SASKATCHEWAN

CITY           SKY/WX    TMP DP  RH WIND       PRES   REMARKS
SWIFT CURRENT  CLOUDY    54  50  87 N10       29.90S
REGINA         LGT RAIN  55  52  88 NE12G17   29.87R
SASKATOON      PTSUNNY   64  48  55 E6        29.90S
CYPRESS HILLS    N/A     48  43  81 N5          N/A
VAL MARIE        N/A     52  48  87 NE13        N/A
ROCKGLEN         N/A     50  50 100 N13G20      N/A
ASSINIBOIA       N/A     57  52  82 W3          N/A
$$




USA.gov is the U.S. government's official web portal to all federal, state and local government web resources and services.